Agios Georgios I — SX9857 — position and weather

sailwx.info

Track history (hours):
 
Tides and Currents Weather Stations Pressure Air Temp Water Temp Dewpoint Dewpoint Depression Visibility Wind Speed Wind Dir Waves Ship Positions

Agios Georgios I

Last reported at 2014-Nov-27 14:06 UTC. Time now 2014-Nov-27 16:06 UTC.
Position N 37°52' E 026°33'.

Length 59 m; draft 5 m.

Type: Ship (hazmat cat B). MMSI: 239912000.

Date/timePositionNaut miles runAvg speedWind from/ knotsBaromVisibWave heightAir tempDewpointWater temp
2014-Nov-27 14:06N 37°52' E 026°33'21 2.3
2014-Nov-27 05:05N 37°35' E 026°18'4 8.2
2014-Nov-27 04:33N 37°33' E 026°13'8 8.4
2014-Nov-27 03:33N 37°30' E 026°03'8 7.5
2014-Nov-27 02:32N 37°29' E 025°54'7 6.8
2014-Nov-27 01:33N 37°28' E 025°45'7 7.4
2014-Nov-27 00:33N 37°27' E 025°36'8 7.8
2014-Nov-26 23:33N 37°25' E 025°27'8 7.5
2014-Nov-26 22:33N 37°24' E 025°17'4 3.9
2014-Nov-26 21:33N 37°28' E 025°19'0 0.0
2014-Nov-26 20:33N 37°28' E 025°19'0 0.0
2014-Nov-26 19:33N 37°28' E 025°19'0 0.4
2014-Nov-26 18:33N 37°28' E 025°19'9 8.9
2014-Nov-26 17:33N 37°32' E 025°09'0 0.3
2014-Nov-26 16:33N 37°32' E 025°09'0 0.0
2014-Nov-26 15:33N 37°32' E 025°09'2 1.8
2014-Nov-26 14:33N 37°31' E 025°07'9 8.8
2014-Nov-26 13:33N 37°27' E 024°58'1 1.3
2014-Nov-26 12:26N 37°26' E 024°56'0 0.0
2014-Nov-26 11:31N 37°26' E 024°56'0 0.0
2014-Nov-26 10:33N 37°26' E 024°56'0 0.0
2014-Nov-26 09:32N 37°26' E 024°56'0 0.0
2014-Nov-26 08:28N 37°26' E 024°56'0 0.0
2014-Nov-26 07:33N 37°26' E 024°56'7 5.9
2014-Nov-26 06:23N 37°20' E 025°00'9 8.2
2014-Nov-26 05:18N 37°12' E 025°05'7 7.4
2014-Nov-26 04:22N 37°05' E 025°08'0 0.2
2014-Nov-26 03:33N 37°06' E 025°08'0 0.0
2014-Nov-26 02:33N 37°06' E 025°08'0 0.0
2014-Nov-26 01:34N 37°06' E 025°08'0 0.0
2014-Nov-26 00:29N 37°06' E 025°08'0 0.0
2014-Nov-25 23:30N 37°06' E 025°08'0 0.0
2014-Nov-25 22:28N 37°06' E 025°08'0 0.0
2014-Nov-25 21:33N 37°06' E 025°08'0 0.0
2014-Nov-25 20:29N 37°06' E 025°08'1 0.6
2014-Nov-25 19:31N 37°05' E 025°09'0 0.0
2014-Nov-25 18:22N 37°05' E 025°09'0 0.0
2014-Nov-25 17:33N 37°05' E 025°09'0 0.0
2014-Nov-25 16:28N 37°05' E 025°09'0 0.0
2014-Nov-25 15:33N 37°05' E 025°09'0 0.0
2014-Nov-25 14:32N 37°05' E 025°09'0 0.0
2014-Nov-25 13:32N 37°05' E 025°09'0 0.0
2014-Nov-25 12:30N 37°05' E 025°09'0 0.0
2014-Nov-25 11:25N 37°05' E 025°09'0 0.0
2014-Nov-25 10:23N 37°05' E 025°09'0 0.3
2014-Nov-25 09:06N 37°05' E 025°09'0 0.0
2014-Nov-25 08:17N 37°05' E 025°09'0 0.1
2014-Nov-25 07:23N 37°06' E 025°09'0 0.4
2014-Nov-25 06:05N 37°05' E 025°09'0 0.0
2014-Nov-25 05:32N 37°05' E 025°09'0 0.4
2014-Nov-25 04:32N 37°05' E 025°08'0 0.0
2014-Nov-25 03:20N 37°05' E 025°08'0 0.0
2014-Nov-25 02:29N 37°05' E 025°08'0 0.0
2014-Nov-25 01:32N 37°05' E 025°08'0 0.0
2014-Nov-25 00:33N 37°05' E 025°08'0 0.0
2014-Nov-24 23:24N 37°05' E 025°08'0 0.0
2014-Nov-24 22:29N 37°05' E 025°09'0 0.0
2014-Nov-24 21:20N 37°05' E 025°08'0 0.0
2014-Nov-24 20:33N 37°05' E 025°08'0 0.0
2014-Nov-24 19:31N 37°05' E 025°08'0 0.0
2014-Nov-24 18:31N 37°05' E 025°08'3 3.4
2014-Nov-24 17:30N 37°08' E 025°11'6 6.9
2014-Nov-24 16:33N 37°10' E 025°19'4 4.4
2014-Nov-24 15:33N 37°06' E 025°22'0 0.0
2014-Nov-24 14:33N 37°06' E 025°22'0 0.0
2014-Nov-24 13:33N 37°06' E 025°22'0 0.0
2014-Nov-24 12:33N 37°06' E 025°22'0 0.0
2014-Nov-24 11:33N 37°06' E 025°22'2 2.3
2014-Nov-24 10:33N 37°08' E 025°21'6 5.6
2014-Nov-24 09:33N 37°14' E 025°19'6 6.3
2014-Nov-24 08:33N 37°20' E 025°18'8 7.5
2014-Nov-24 07:33N 37°27' E 025°18'1 1.0
2014-Nov-24 06:33N 37°28' E 025°19'0 0.0
2014-Nov-24 05:33N 37°28' E 025°19'0 0.0
2014-Nov-24 04:33N 37°28' E 025°19'0 0.0
2014-Nov-24 03:33N 37°28' E 025°19'0 0.0
2014-Nov-24 02:33N 37°28' E 025°19'0 0.0
2014-Nov-24 01:33N 37°28' E 025°19'0 0.0
2014-Nov-24 00:33N 37°28' E 025°19'0 0.0
2014-Nov-23 23:33N 37°28' E 025°19'0 0.0
2014-Nov-23 22:33N 37°28' E 025°19'0 0.0
2014-Nov-23 21:33N 37°28' E 025°19'0 0.0
2014-Nov-23 20:33N 37°28' E 025°19'0 0.0
2014-Nov-23 19:33N 37°28' E 025°19'0 0.0
2014-Nov-23 18:33N 37°28' E 025°19'0 0.0
2014-Nov-23 17:33N 37°28' E 025°19'0 0.0
2014-Nov-23 16:33N 37°28' E 025°19'0 0.0
2014-Nov-23 15:33N 37°28' E 025°19'4 4.1
2014-Nov-23 14:33N 37°28' E 025°14'8 8.1
2014-Nov-23 13:33N 37°31' E 025°05'7 7.4
2014-Nov-23 12:33N 37°26' E 024°57'1 0.7
2014-Nov-23 11:32N 37°26' E 024°56'0 0.0
2014-Nov-23 10:33N 37°26' E 024°56'0 0.0
2014-Nov-23 09:28N 37°26' E 024°56'0 0.0
2014-Nov-23 08:30N 37°26' E 024°56'0 0.0
2014-Nov-23 07:33N 37°26' E 024°56'0 0.0
2014-Nov-23 06:32N 37°26' E 024°56'0 0.0
2014-Nov-23 05:26N 37°26' E 024°56'0 0.0
2014-Nov-23 04:28N 37°26' E 024°56'0 0.0
2014-Nov-23 03:33N 37°26' E 024°56'0 0.0
2014-Nov-23 02:32N 37°26' E 024°56'0 0.0
2014-Nov-23 01:32N 37°26' E 024°56'0 0.0
2014-Nov-23 00:33N 37°26' E 024°56'4 4.2
2014-Nov-22 23:32N 37°30' E 024°57'8 8.0
2014-Nov-22 22:33N 37°32' E 024°47'9 8.4
2014-Nov-22 21:32N 37°32' E 024°36'8 8.3
2014-Nov-22 20:33N 37°31' E 024°26'9 8.4
2014-Nov-22 19:33N 37°30' E 024°15'25 8.2
2014-Nov-22 16:31N 37°38' E 023°46'8 8.2
2014-Nov-22 15:33N 37°44' E 023°40'9 8.7
2014-Nov-22 14:33N 37°53' E 023°36'5 4.9
2014-Nov-22 13:33N 37°57' E 023°35'0 0.0
2014-Nov-22 12:33N 37°57' E 023°35'0 0.0
2014-Nov-22 11:33N 37°57' E 023°35'0 0.0
2014-Nov-22 10:33N 37°57' E 023°35'0 0.0
2014-Nov-22 09:33N 37°57' E 023°35'0 0.0
2014-Nov-22 08:33N 37°57' E 023°35'0 0.0
2014-Nov-22 07:33N 37°57' E 023°35'0 0.0
2014-Nov-22 06:33N 37°57' E 023°35'0 0.0
2014-Nov-22 05:33N 37°57' E 023°35'0 0.0
2014-Nov-22 04:33N 37°57' E 023°35'0 0.0
2014-Nov-22 03:33N 37°57' E 023°35'0 0.0
2014-Nov-22 02:33N 37°57' E 023°35'0 0.0
2014-Nov-22 01:33N 37°57' E 023°35'2 1.8
2014-Nov-22 00:33N 37°56' E 023°35'8 8.2
2014-Nov-21 23:33N 37°48' E 023°40'8 7.9
2014-Nov-21 22:32N 37°41' E 023°45'9 7.7
2014-Nov-21 21:23N 37°38' E 023°56'  
2014-Nov-19 00:33N 37°57' E 025°51'10 9.8
2014-Nov-18 23:32N 37°49' E 025°43'10 9.8
2014-Nov-18 22:33N 37°43' E 025°34'10 9.7
2014-Nov-18 21:33N 37°37' E 025°25'10 9.9
2014-Nov-18 20:33N 37°29' E 025°18'2 1.6
2014-Nov-18 19:33N 37°28' E 025°19'0 0.0
2014-Nov-18 18:33N 37°28' E 025°19'0 0.0
2014-Nov-18 17:33N 37°28' E 025°19'3 3.5
2014-Nov-18 16:33N 37°27' E 025°15'10 9.7
2014-Nov-18 15:33N 37°27' E 025°03'5 5.3
2014-Nov-18 14:32N 37°26' E 024°56'0 0.0
2014-Nov-18 13:31N 37°26' E 024°56'0 0.0
2014-Nov-18 12:26N 37°26' E 024°56'0 0.0
2014-Nov-18 11:31N 37°26' E 024°56'0 0.0
2014-Nov-18 10:33N 37°26' E 024°56'0 0.0
2014-Nov-18 09:30N 37°26' E 024°56'0 0.0
2014-Nov-18 08:31N 37°26' E 024°56'0 0.0
2014-Nov-18 07:32N 37°26' E 024°56'0 0.0
2014-Nov-18 06:31N 37°26' E 024°56'4 4.4
2014-Nov-18 05:33N 37°24' E 025°01'9 9.5
2014-Nov-18 04:33N 37°17' E 025°09'9 9.2
2014-Nov-18 03:33N 37°10' E 025°17'6 5.6
2014-Nov-18 02:33N 37°06' E 025°22'0 0.0
2014-Nov-18 01:33N 37°06' E 025°22'0 0.0
2014-Nov-18 00:33N 37°06' E 025°22'0 0.0
2014-Nov-17 23:33N 37°06' E 025°22'0 0.0
2014-Nov-17 22:33N 37°06' E 025°22'0 0.0
2014-Nov-17 21:33N 37°06' E 025°22'0 0.5
2014-Nov-17 20:33N 37°06' E 025°22'0 0.5
2014-Nov-17 19:33N 37°06' E 025°22'0 0.0
2014-Nov-17 18:33N 37°06' E 025°22'0 0.0
2014-Nov-17 17:33N 37°06' E 025°22'1 0.6
2014-Nov-17 16:33N 37°06' E 025°22'1 0.6
2014-Nov-17 15:33N 37°06' E 025°22'5 5.0
2014-Nov-17 14:33N 37°10' E 025°18'  
Track history (hours):
 
Tides and Currents Weather Stations Pressure Air Temp Water Temp Dewpoint Dewpoint Depression Visibility Wind Speed Wind Dir Waves Ship Positions

Agios Georgios I

Last reported at 2014-Nov-27 14:06 UTC. Time now 2014-Nov-27 16:06 UTC.
Position N 37°52' E 026°33'.

Length 59 m; draft 5 m.

Type: Ship (hazmat cat B). MMSI: 239912000.

Date/timePositionNaut miles runAvg speedWind from/ knotsBaromVisibWave heightAir tempDewpointWater temp
2014-Nov-27 14:06N 37°52' E 026°33'21 2.3
2014-Nov-27 05:05N 37°35' E 026°18'4 8.2
2014-Nov-27 04:33N 37°33' E 026°13'8 8.4
2014-Nov-27 03:33N 37°30' E 026°03'8 7.5
2014-Nov-27 02:32N 37°29' E 025°54'7 6.8
2014-Nov-27 01:33N 37°28' E 025°45'7 7.4
2014-Nov-27 00:33N 37°27' E 025°36'8 7.8
2014-Nov-26 23:33N 37°25' E 025°27'8 7.5
2014-Nov-26 22:33N 37°24' E 025°17'4 3.9
2014-Nov-26 21:33N 37°28' E 025°19'0 0.0
2014-Nov-26 20:33N 37°28' E 025°19'0 0.0
2014-Nov-26 19:33N 37°28' E 025°19'0 0.4
2014-Nov-26 18:33N 37°28' E 025°19'9 8.9
2014-Nov-26 17:33N 37°32' E 025°09'0 0.3
2014-Nov-26 16:33N 37°32' E 025°09'0 0.0
2014-Nov-26 15:33N 37°32' E 025°09'2 1.8
2014-Nov-26 14:33N 37°31' E 025°07'9 8.8
2014-Nov-26 13:33N 37°27' E 024°58'1 1.3
2014-Nov-26 12:26N 37°26' E 024°56'0 0.0
2014-Nov-26 11:31N 37°26' E 024°56'0 0.0
2014-Nov-26 10:33N 37°26' E 024°56'0 0.0
2014-Nov-26 09:32N 37°26' E 024°56'0 0.0
2014-Nov-26 08:28N 37°26' E 024°56'0 0.0
2014-Nov-26 07:33N 37°26' E 024°56'7 5.9
2014-Nov-26 06:23N 37°20' E 025°00'9 8.2
2014-Nov-26 05:18N 37°12' E 025°05'7 7.4
2014-Nov-26 04:22N 37°05' E 025°08'0 0.2
2014-Nov-26 03:33N 37°06' E 025°08'0 0.0
2014-Nov-26 02:33N 37°06' E 025°08'0 0.0
2014-Nov-26 01:34N 37°06' E 025°08'0 0.0
2014-Nov-26 00:29N 37°06' E 025°08'0 0.0
2014-Nov-25 23:30N 37°06' E 025°08'0 0.0
2014-Nov-25 22:28N 37°06' E 025°08'0 0.0
2014-Nov-25 21:33N 37°06' E 025°08'0 0.0
2014-Nov-25 20:29N 37°06' E 025°08'1 0.6
2014-Nov-25 19:31N 37°05' E 025°09'0 0.0
2014-Nov-25 18:22N 37°05' E 025°09'0 0.0
2014-Nov-25 17:33N 37°05' E 025°09'0 0.0
2014-Nov-25 16:28N 37°05' E 025°09'0 0.0
2014-Nov-25 15:33N 37°05' E 025°09'0 0.0
2014-Nov-25 14:32N 37°05' E 025°09'0 0.0
2014-Nov-25 13:32N 37°05' E 025°09'0 0.0
2014-Nov-25 12:30N 37°05' E 025°09'0 0.0
2014-Nov-25 11:25N 37°05' E 025°09'0 0.0
2014-Nov-25 10:23N 37°05' E 025°09'0 0.3
2014-Nov-25 09:06N 37°05' E 025°09'0 0.0
2014-Nov-25 08:17N 37°05' E 025°09'0 0.1
2014-Nov-25 07:23N 37°06' E 025°09'0 0.4
2014-Nov-25 06:05N 37°05' E 025°09'0 0.0
2014-Nov-25 05:32N 37°05' E 025°09'0 0.4
2014-Nov-25 04:32N 37°05' E 025°08'0 0.0
2014-Nov-25 03:20N 37°05' E 025°08'0 0.0
2014-Nov-25 02:29N 37°05' E 025°08'0 0.0
2014-Nov-25 01:32N 37°05' E 025°08'0 0.0
2014-Nov-25 00:33N 37°05' E 025°08'0 0.0
2014-Nov-24 23:24N 37°05' E 025°08'0 0.0
2014-Nov-24 22:29N 37°05' E 025°09'0 0.0
2014-Nov-24 21:20N 37°05' E 025°08'0 0.0
2014-Nov-24 20:33N 37°05' E 025°08'0 0.0
2014-Nov-24 19:31N 37°05' E 025°08'0 0.0
2014-Nov-24 18:31N 37°05' E 025°08'3 3.4
2014-Nov-24 17:30N 37°08' E 025°11'6 6.9
2014-Nov-24 16:33N 37°10' E 025°19'4 4.4
2014-Nov-24 15:33N 37°06' E 025°22'0 0.0
2014-Nov-24 14:33N 37°06' E 025°22'0 0.0
2014-Nov-24 13:33N 37°06' E 025°22'0 0.0
2014-Nov-24 12:33N 37°06' E 025°22'0 0.0
2014-Nov-24 11:33N 37°06' E 025°22'2 2.3
2014-Nov-24 10:33N 37°08' E 025°21'6 5.6
2014-Nov-24 09:33N 37°14' E 025°19'6 6.3
2014-Nov-24 08:33N 37°20' E 025°18'8 7.5
2014-Nov-24 07:33N 37°27' E 025°18'1 1.0
2014-Nov-24 06:33N 37°28' E 025°19'0 0.0
2014-Nov-24 05:33N 37°28' E 025°19'0 0.0
2014-Nov-24 04:33N 37°28' E 025°19'0 0.0
2014-Nov-24 03:33N 37°28' E 025°19'0 0.0
2014-Nov-24 02:33N 37°28' E 025°19'0 0.0
2014-Nov-24 01:33N 37°28' E 025°19'0 0.0
2014-Nov-24 00:33N 37°28' E 025°19'0 0.0
2014-Nov-23 23:33N 37°28' E 025°19'0 0.0
2014-Nov-23 22:33N 37°28' E 025°19'0 0.0
2014-Nov-23 21:33N 37°28' E 025°19'0 0.0
2014-Nov-23 20:33N 37°28' E 025°19'0 0.0
2014-Nov-23 19:33N 37°28' E 025°19'0 0.0
2014-Nov-23 18:33N 37°28' E 025°19'0 0.0
2014-Nov-23 17:33N 37°28' E 025°19'0 0.0
2014-Nov-23 16:33N 37°28' E 025°19'0 0.0
2014-Nov-23 15:33N 37°28' E 025°19'4 4.1
2014-Nov-23 14:33N 37°28' E 025°14'8 8.1
2014-Nov-23 13:33N 37°31' E 025°05'7 7.4
2014-Nov-23 12:33N 37°26' E 024°57'1 0.7
2014-Nov-23 11:32N 37°26' E 024°56'0 0.0
2014-Nov-23 10:33N 37°26' E 024°56'0 0.0
2014-Nov-23 09:28N 37°26' E 024°56'0 0.0
2014-Nov-23 08:30N 37°26' E 024°56'0 0.0
2014-Nov-23 07:33N 37°26' E 024°56'0 0.0
2014-Nov-23 06:32N 37°26' E 024°56'0 0.0
2014-Nov-23 05:26N 37°26' E 024°56'0 0.0
2014-Nov-23 04:28N 37°26' E 024°56'0 0.0
2014-Nov-23 03:33N 37°26' E 024°56'0 0.0
2014-Nov-23 02:32N 37°26' E 024°56'0 0.0
2014-Nov-23 01:32N 37°26' E 024°56'0 0.0
2014-Nov-23 00:33N 37°26' E 024°56'4 4.2
2014-Nov-22 23:32N 37°30' E 024°57'8 8.0
2014-Nov-22 22:33N 37°32' E 024°47'9 8.4
2014-Nov-22 21:32N 37°32' E 024°36'8 8.3
2014-Nov-22 20:33N 37°31' E 024°26'9 8.4
2014-Nov-22 19:33N 37°30' E 024°15'25 8.2
2014-Nov-22 16:31N 37°38' E 023°46'8 8.2
2014-Nov-22 15:33N 37°44' E 023°40'9 8.7
2014-Nov-22 14:33N 37°53' E 023°36'5 4.9
2014-Nov-22 13:33N 37°57' E 023°35'0 0.0
2014-Nov-22 12:33N 37°57' E 023°35'0 0.0
2014-Nov-22 11:33N 37°57' E 023°35'0 0.0
2014-Nov-22 10:33N 37°57' E 023°35'0 0.0
2014-Nov-22 09:33N 37°57' E 023°35'0 0.0
2014-Nov-22 08:33N 37°57' E 023°35'0 0.0
2014-Nov-22 07:33N 37°57' E 023°35'0 0.0
2014-Nov-22 06:33N 37°57' E 023°35'0 0.0
2014-Nov-22 05:33N 37°57' E 023°35'0 0.0
2014-Nov-22 04:33N 37°57' E 023°35'0 0.0
2014-Nov-22 03:33N 37°57' E 023°35'0 0.0
2014-Nov-22 02:33N 37°57' E 023°35'0 0.0
2014-Nov-22 01:33N 37°57' E 023°35'2 1.8
2014-Nov-22 00:33N 37°56' E 023°35'8 8.2
2014-Nov-21 23:33N 37°48' E 023°40'8 7.9
2014-Nov-21 22:32N 37°41' E 023°45'9 7.7
2014-Nov-21 21:23N 37°38' E 023°56'  
2014-Nov-19 00:33N 37°57' E 025°51'10 9.8
2014-Nov-18 23:32N 37°49' E 025°43'10 9.8
2014-Nov-18 22:33N 37°43' E 025°34'10 9.7
2014-Nov-18 21:33N 37°37' E 025°25'10 9.9
2014-Nov-18 20:33N 37°29' E 025°18'2 1.6
2014-Nov-18 19:33N 37°28' E 025°19'0 0.0
2014-Nov-18 18:33N 37°28' E 025°19'0 0.0
2014-Nov-18 17:33N 37°28' E 025°19'3 3.5
2014-Nov-18 16:33N 37°27' E 025°15'10 9.7
2014-Nov-18 15:33N 37°27' E 025°03'5 5.3
2014-Nov-18 14:32N 37°26' E 024°56'0 0.0
2014-Nov-18 13:31N 37°26' E 024°56'0 0.0
2014-Nov-18 12:26N 37°26' E 024°56'0 0.0
2014-Nov-18 11:31N 37°26' E 024°56'0 0.0
2014-Nov-18 10:33N 37°26' E 024°56'0 0.0
2014-Nov-18 09:30N 37°26' E 024°56'0 0.0
2014-Nov-18 08:31N 37°26' E 024°56'0 0.0
2014-Nov-18 07:32N 37°26' E 024°56'0 0.0
2014-Nov-18 06:31N 37°26' E 024°56'4 4.4
2014-Nov-18 05:33N 37°24' E 025°01'9 9.5
2014-Nov-18 04:33N 37°17' E 025°09'9 9.2
2014-Nov-18 03:33N 37°10' E 025°17'6 5.6
2014-Nov-18 02:33N 37°06' E 025°22'0 0.0
2014-Nov-18 01:33N 37°06' E 025°22'0 0.0
2014-Nov-18 00:33N 37°06' E 025°22'0 0.0
2014-Nov-17 23:33N 37°06' E 025°22'0 0.0
2014-Nov-17 22:33N 37°06' E 025°22'0 0.0
2014-Nov-17 21:33N 37°06' E 025°22'0 0.5
2014-Nov-17 20:33N 37°06' E 025°22'0 0.5
2014-Nov-17 19:33N 37°06' E 025°22'0 0.0
2014-Nov-17 18:33N 37°06' E 025°22'0 0.0
2014-Nov-17 17:33N 37°06' E 025°22'1 0.6
2014-Nov-17 16:33N 37°06' E 025°22'1 0.6
2014-Nov-17 15:33N 37°06' E 025°22'5 5.0
2014-Nov-17 14:33N 37°10' E 025°18'  

Dump ship's entire track history